Location: Baia Mare
(47.6567°N, 23.5850°E)
Time: 09:40:30
(UTC+03:00)

ISS - Pass Details

Date: 08 February 2016
Orbit: 411 x 421 km, 51.6° (Epoch: 14 October)

Event Time Altitude Azimuth Distance (km) Brightness Sun altitude
Rises 19:28:19 0° 293° (WNW) 2,380 1.3 -19.1°
Reaches altitude 10° 19:30:26 10° 295° (WNW) 1,511 0.0 -19.5°
Enters shadow 19:33:45 74° 4° (N) 442 -3.8 -20.1°
